CZ-6A DEB

Satellite information

Favourite Embed

Satellite Type and Status

DEBRISIN ORBIT

Key statistics

Satellite CZ-6A DEB at a glance.

Uptime

389

Days in orbit

Revolutions

≈ 14.5

Per day

Orbit

LEO

Low Earth Orbit

Inclination

89.1

Latest

Satellite identification and parameters

Extended collection of information and parameters for CZ-6A DEB.

Object identification

Identified? True

Debris? True

Object name: CZ-6A DEB

International designator: 2024-140NN

Object number (NORAD): 61096

Object ID (CCSDS): 61096

Country: PEOPLES REPUBLIC OF CHINA (PRC)

Current information (Y/N): Y

RCS size: SMALL

Orbital parameters

Period: 99.005 minutes

Inclination: 89.061 deg

SMA: 7089.238 km

Apoapsis: 783.335 km

Periapsis: 638.87 km

RAAN: 307.9376 deg

Eccentricy: 0.01018905

Argument of periapsis: 188.2974 deg

Mean anomaly: 171.6556 deg

Mean motion: 14.54465544 rev/day

Mean motion (dot): 0.00004984 rev/day2

B* drag term: 0.0010888259 1/REarth

Two-line elements (TLE)

Creation date: Aug. 30, 2025, 3:38 a.m.

Reference frame: TEME

Reference center: EARTH

Epoch: Aug. 29, 2025, 10:25 p.m. UTC

TLE line 0: 0 CZ-6A DEB

TLE line 1: 1 61096U 24140NN 25241.93467163 .00004984 00000-0 10888-2 0 9998

TLE line 2: 2 61096 89.0610 307.9376 0101890 188.2974 171.6556 14.54465544 53192

Live tracking on map

Real-time ground track for satellite CZ-6A DEB.

In-orbit conjunctions

A list of the most updated potential collisions computed for object CZ-6A DEB.

Target Orbit TCA Probability of collision Miss distance Type
DMSP 5D-2 F11 DEB SSO 2025-03-03 04:22:04 0.0008362486 499.0 (m) DEBRIS
COSMOS 2251 DEB LEO 2025-02-13 05:40:51 0.0002240968 966.0 (m) DEBRIS
CZ-2D DEB SSO 2025-01-27 22:13:24 0.002579132 93.0 (m) DEBRIS
HEALTHSAT 1 SSO 2025-01-21 10:56:56 0.001887945 179.0 (m) PAYLOAD
FENGYUN 1C DEB SSO 2025-01-19 10:55:13 0.0001125301 232.0 (m) DEBRIS

Associated space launch

18 Low Earth Orbit communication satellites with Ku, Q and V band payloads for the G60 constellation operated by Shanghai Spacecom Satellite Technology (SSST) with funding backed by the Shanghai local government. Initial constellation will consist of 1296 satellites by 2027 with long term plans to expand it to 12000 satellites.

CZ-6A DEB was lifted into orbit during the mission ‘Long March 6A | G60 Polar Group 01’, on board a Long March 6A space rocket.

The launch took place on Aug. 6, 2024, 6:42 a.m. from Launch Complex 9A.

For more information about the launch, click the button.

Launch to space Long March 6A | G60 Polar Group 01
Long March 6A | G60 Polar Group 01

Agency: N/A

Status: Launch Successful

Launch date: Aug. 6, 2024, 6:42 a.m. UTC

Rocket: Long March 6A

Launch pad: Launch Complex 9A

Location: Taiyuan Satellite Launch Center, People's Republic of China

...

Latest news about this satellite

News about space launch
Brightness of first Chinese broadband constellation satellites alarms astronomers

The first satellites of a Chinese broadband constellation are significantly brighter than those of Western systems, posing a new challenge for astronomers.

News about space launch
Chinese rocket stage breaks up into cloud of more than 700 pieces of space debris

HELSINKI — A Chinese Long March 6A rocket’s upper stage has fragmented into a cloud of over 700 pieces of space debris, adding to concerns about long-term orbital safety. China […]

News about space launch
China's Thousand Sails Megaconstellation Kicks Off with Dangerous Debris Field

China's Thousand Sails Megaconstellation Kicks Off with Dangerous Debris Field


Newsletter sign-up

Weekly statistics, charts and insights to help you stay on top of the space industry.